STARLINK-1553, 46348

Orbit data source: Space-Track

STARLINK-1553, 46348 is a payload satellite owned by SpaceX/Seattle (US) in LEO that was launched on Thu, 03 Sep 2020 UTC via an FALCON 9 launch vehicle from the Air Force Eastern Test Range (AFETR). Payload-class satellites include a variety of spacecraft equipped with specific instruments for various scientific and technological missions. These include communications satellites like Starlink; space stations such as the ISS; scientific satellites like the Hubble; Earth observation satellites from companies like Planet Labs, Umbra, and HawkEye 360; GPS; miniature CubeSats for education and research; and military/defense satellites.

Loading next visibility...
Identifier
46348, 2020-062Z
Orbit
LEO
Country
Flag of USUS
Related business
Manufacturer
SpaceX/Seattle
Mission
Partially operational Commercial Communications
Bus & Motor
STARLINK, Unknown motor
Mass
260 kg wet, ~248 kg dry
Launch date (UTC)
2020-09-03 (6 years ago)
Launch vehicle
FALCON 9
Launch site
Air Force Eastern Test Range (AFETR)
Object type
Payload
Rocket body
Debris
Shape & HBR
Box + 1 Pan, 10.1 m
Radar Cross Section
13.562 m², Large (>1 m²)

Expand to show TLE details & history
Last TLE update: 13 hours ago

TLE from 13 hours ago
0 STARLINK-1553
1 46348U 20062Z   26072.59703120  .00024291  00000-0  67312-3 0  9999
2 46348  53.0385 288.5180 0004638 155.9492 204.1727 15.36839811305892
Epoch: 2026-03-13T14:19Z
TLE epoch observation values (Epoch: 2026-03-13T14:19:43.495Z)
Latitude
-0.00007°
Longitude
-97.64356°
Altitude
459.242 km
Speed
7.637 km/s
True Right ascension
19h 14m 04s
True Declination
0° 00' 00"
Sunlit
Object was in daylight at epoch
Visualization orbit readout
Latitude
Unknown
Longitude
Unknown
Altitude
Unknown
Speed
Unknown
Apparent Right ascension
Unknown
Apparent Declination
Unknown
Sunlit
N/A
Visualization observer readout
Local Sidereal Time
07:51:20
Azimuth
Unknown
Elevation
Unknown
Doppler factor
Unknown
Orbital elements
Apogee altitude
458.908 km
Perigee altitude
452.568 km
Semi-major axis
6,833.875 km
Eccentricity
0.00046
Inclination
53.0385°
RAAN
288.518°
Arg. of periapsis
155.9492°
True anomaly
204.15095°
Mean anomaly
204.1727°
Eccentric anomaly
204.16182°
Mean motion
3.84187 °/min
Orbital period
93.7 mins
BSTAR
0.00067312
Loading maneuver chart data...
Computing Atmospheric mass density...
Loading historical data...
Loading historical data...
Loading historical data...
Loading historical data...
Loading historical data...
Loading historical data...
Loading historical data...

Documentation

Showing up to 5 results
|